Location: St. Louis
(38.6270°N, 90.1994°W)
Time: 11:34:01
(UTC-06:00)

Altair - Pass Details

Date: 08 December 2021
Orbit: 1501 x 1683 km, 47.2° (Epoch: 25 January)

Event Time Altitude Azimuth Distance (km) Brightness Sun altitude
Rises 21:49:41 0° 297° (WNW) 4,656 10.5 -59.4°
Reaches altitude 10° 21:53:05 10° 288° (WNW) 3,660 9.8 -60.0°
Enters shadow 21:54:12 14° 284° (WNW) 3,360 9.5 -60.2°
Maximum altitude 22:00:56 33° 229° (SW) 2,305 - -61.4°
Drops below altitude 10° 22:08:48 10° 169° (S) 3,659 - -62.7°
Sets 22:12:13 0° 160° (SSE) 4,654 - -63.3°
